Date String (YYYY-MM-DD hh:mm:ss) UTC,Instrument flags,Ambient pressure (hPa),Sample flow (lpm),Bypass flow (lpm),Sample temperature (°C),Ambient temperature (°C),ASC tube jacket temperature (°C),LED temperature (°C),Box temperature (°C),Sample RH (%),Span deviation,Mass concentration (μg/m³),Mass concentration (μg/m³),Mass concentration (μg/m³)
DateTimeUTC,F1_M11,P_M11,Q1_M11,Q2_M11,T1_M11,T2_M11,T3_M11,T4_M11,T5_M11,U1_M11,ZSPAN_M11,X0_M11,X2_M11,X1_M11
2021-09-20 00:00:00,,0819.0,5.00,0.00,29.3,27.1,00.0,38.3,30.9,15.1,0002.2,0011.53,0006.66,0006.27
2021-09-20 00:01:00,,0819.0,5.00,0.00,29.1,25.6,00.0,38.2,30.5,15.1,0002.2,0011.48,0006.68,0006.27
2021-09-20 00:02:00,,0819.0,5.00,0.00,29.1,25.8,00.0,38.2,30.5,15.2,0002.2,0011.34,0006.63,0006.25
2021-09-20 00:03:00,,0819.1,5.00,0.00,29.0,26.2,00.0,38.2,30.6,15.3,0002.0,0011.25,0006.58,0006.20
2021-09-20 00:04:00,,0819.1,5.00,0.00,29.0,26.7,00.0,38.2,30.7,15.4,0001.9,0011.16,0006.53,0006.17
2021-09-20 00:05:00,,0819.1,5.00,0.00,29.0,27.2,00.0,38.1,30.8,15.5,0001.7,0011.13,0006.51,0006.13
2021-09-20 00:06:00,,0819.1,5.00,0.00,29.1,27.5,00.0,38.2,30.9,15.5,0001.4,0009.60,0006.47,0006.12
2021-09-20 00:07:00,,0819.2,5.00,0.00,29.1,27.8,00.0,38.2,31.0,15.5,0001.2,0009.47,0006.44,0006.11
2021-09-20 00:08:00,,0819.2,4.99,0.00,29.2,28.1,00.0,38.2,31.1,15.4,0001.1,0009.60,0006.42,0006.09
2021-09-20 00:09:00,,0819.2,5.01,0.00,29.3,28.3,00.0,38.2,31.2,15.4,0000.9,0009.60,0006.39,0006.05
2021-09-20 00:10:00,,0819.3,4.99,0.00,29.3,28.5,00.0,38.2,31.3,15.4,0001.2,0009.63,0006.38,0006.02
2021-09-20 00:11:00,,0819.3,4.99,0.00,29.4,28.4,00.0,38.3,31.3,15.4,0001.4,0009.58,0006.36,0006.01
2021-09-20 00:12:00,,0819.3,5.01,0.00,29.3,26.7,00.0,38.3,30.8,15.6,0001.5,0009.50,0006.32,0005.98
2021-09-20 00:13:00,,0819.3,4.99,0.00,29.1,25.6,00.0,38.2,30.5,15.9,0001.5,0009.62,0006.29,0005.95
2021-09-20 00:14:00,,0819.2,5.00,0.00,29.1,25.9,00.0,38.2,30.6,16.0,0001.6,0009.83,0006.30,0005.96
2021-09-20 00:15:00,,0819.2,5.01,0.00,29.0,26.4,00.0,38.2,30.7,15.9,0001.7,0009.88,0006.30,0005.97
2021-09-20 00:16:00,,0819.2,5.00,0.00,29.0,26.8,00.0,38.2,30.7,15.8,0001.9,0010.02,0006.29,0005.97
2021-09-20 00:17:00,,0819.2,5.00,0.00,29.1,27.3,00.0,38.2,30.9,15.8,0002.2,0009.99,0006.27,0005.97
2021-09-20 00:18:00,,0819.2,5.00,0.00,29.1,27.6,00.0,38.2,31.0,15.8,0002.3,0010.20,0006.28,0005.96
2021-09-20 00:19:00,,0819.3,5.00,0.00,29.2,27.9,00.0,38.2,31.1,15.8,0002.3,0010.06,0006.27,0005.95
2021-09-20 00:20:00,,0819.3,5.01,0.00,29.2,28.2,00.0,38.2,31.2,15.8,0002.3,0010.07,0006.27,0005.95
2021-09-20 00:21:00,,0819.3,5.00,0.00,29.3,28.4,00.0,38.2,31.3,15.6,0002.1,0009.96,0006.24,0005.94
2021-09-20 00:22:00,,0819.3,4.99,0.00,29.4,28.6,00.0,38.2,31.3,15.7,0002.1,0010.26,0006.23,0005.93
2021-09-20 00:23:00,,0819.2,5.01,0.00,29.4,28.1,00.0,38.3,31.2,15.8,0001.8,0010.43,0006.22,0005.92
2021-09-20 00:24:00,,0819.2,5.00,0.00,29.3,26.2,00.0,38.3,30.7,15.9,0001.7,0010.48,0006.25,0005.91
2021-09-20 00:25:00,,0819.3,4.99,0.00,29.1,25.6,00.0,38.2,30.5,15.9,0001.5,0010.29,0006.23,0005.88
2021-09-20 00:26:00,,0819.3,5.00,0.00,29.1,26.0,00.0,38.2,30.6,16.0,0001.3,0010.25,0006.21,0005.86
2021-09-20 00:27:00,,0819.3,5.02,0.00,29.1,26.4,00.0,38.2,30.7,16.1,0001.1,0010.14,0006.20,0005.84
2021-09-20 00:28:00,,0819.3,4.99,0.00,29.1,26.9,00.0,38.2,30.8,16.2,0000.8,0010.26,0006.21,0005.82
2021-09-20 00:29:00,,0819.3,5.00,0.00,29.1,27.3,00.0,38.2,30.9,16.0,0000.8,0010.08,0006.18,0005.78
2021-09-20 00:30:00,,0819.2,5.01,0.00,29.1,27.7,00.0,38.2,31.0,16.0,0001.0,0010.05,0006.18,0005.77
2021-09-20 00:31:00,,0819.3,5.00,0.00,29.2,28.0,00.0,38.2,31.1,15.8,0001.4,0010.05,0006.18,0005.77
2021-09-20 00:32:00,,0819.2,5.00,0.00,29.3,28.2,00.0,38.2,31.2,15.8,0001.5,0010.11,0006.20,0005.77
2021-09-20 00:33:00,,0819.3,5.00,0.00,29.3,28.4,00.0,38.2,31.2,15.7,0001.5,0009.79,0006.18,0005.75
2021-09-20 00:34:00,,0819.3,5.00,0.00,29.4,28.6,00.0,38.3,31.3,15.7,0001.6,0009.58,0006.15,0005.73
2021-09-20 00:35:00,,0819.4,5.01,0.00,29.4,28.4,00.0,38.3,31.3,15.7,0002.0,0009.41,0006.10,0005.70
2021-09-20 00:36:00,,0819.4,5.01,0.00,29.3,26.6,00.0,38.3,30.8,15.8,0002.2,0009.40,0006.10,0005.67
2021-09-20 00:37:00,,0819.4,4.99,0.00,29.1,25.4,00.0,38.3,30.4,16.0,0002.1,0009.37,0006.07,0005.64
2021-09-20 00:38:00,,0819.4,5.00,0.00,29.1,25.8,00.0,38.2,30.5,16.1,0002.1,0009.33,0006.04,0005.61
2021-09-20 00:39:00,,0819.4,5.01,0.00,29.0,26.2,00.0,38.2,30.6,16.2,0002.2,0009.20,0005.99,0005.58
2021-09-20 00:40:00,,0819.4,5.00,0.00,29.0,26.7,00.0,38.2,30.8,16.2,0002.5,0009.07,0005.95,0005.55
2021-09-20 00:41:00,,0819.4,5.00,0.00,29.1,27.1,00.0,38.2,30.9,16.2,0002.6,0008.94,0005.89,0005.52
2021-09-20 00:42:00,,0819.4,5.00,0.00,29.1,27.5,00.0,38.2,30.9,16.2,0002.5,0008.90,0005.85,0005.48
2021-09-20 00:43:00,,0819.4,5.00,0.00,29.2,27.8,00.0,38.2,31.0,16.3,0002.8,0008.85,0005.80,0005.43
2021-09-20 00:44:00,,0819.3,4.99,0.00,29.2,28.0,00.0,38.2,31.1,16.2,0002.8,0008.77,0005.73,0005.38
2021-09-20 00:45:00,,0819.4,5.01,0.00,29.3,28.3,00.0,38.2,31.2,16.2,0002.7,0008.77,0005.68,0005.32
2021-09-20 00:46:00,,0819.4,5.00,0.00,29.3,28.4,00.0,38.2,31.2,16.2,0002.6,0008.76,0005.63,0005.27
2021-09-20 00:47:00,,0819.4,5.01,0.00,29.4,28.6,00.0,38.3,31.3,16.2,0002.7,0008.64,0005.57,0005.22
2021-09-20 00:48:00,,0819.4,5.00,0.00,29.4,28.2,00.0,38.3,31.2,16.2,0002.7,0008.56,0005.52,0005.18
2021-09-20 00:49:00,,0819.3,5.00,0.00,29.3,26.2,00.0,38.3,30.7,16.4,0002.8,0008.43,0005.48,0005.14
2021-09-20 00:50:00,,0819.3,4.99,0.00,29.1,25.4,00.0,38.3,30.4,16.6,0002.7,0008.56,0005.45,0005.11
2021-09-20 00:51:00,,0819.3,5.00,0.00,29.1,25.8,00.0,38.2,30.5,16.7,0002.4,0008.56,0005.42,0005.07
2021-09-20 00:52:00,,0819.4,5.01,0.00,29.0,26.3,00.0,38.2,30.6,16.8,0002.0,0008.52,0005.39,0005.05
2021-09-20 00:53:00,,0819.4,5.00,0.00,29.0,26.8,00.0,38.2,30.7,16.8,0002.0,0008.48,0005.37,0005.02
2021-09-20 00:54:00,,0819.5,5.01,0.00,29.0,27.2,00.0,38.2,30.8,16.9,0002.2,0008.41,0005.34,0004.99
2021-09-20 00:55:00,,0819.5,4.99,0.00,29.1,27.5,00.0,38.2,30.9,16.9,0002.3,0008.43,0005.34,0004.99
2021-09-20 00:56:00,,0819.5,5.01,0.00,29.1,27.8,00.0,38.2,31.0,16.8,0002.3,0008.46,0005.33,0004.99
2021-09-20 00:57:00,,0819.5,4.99,0.00,29.2,28.1,00.0,38.2,31.1,16.8,0002.2,0008.80,0005.33,0004.98
2021-09-20 00:58:00,,0819.5,5.01,0.00,29.2,28.2,00.0,38.2,31.1,16.8,0001.8,0008.75,0005.31,0004.96
2021-09-20 00:59:00,,0819.5,4.98,0.00,29.3,28.4,00.0,38.2,31.2,16.8,0001.6,0008.73,0005.30,0004.96
